JTD557 EKBI-LGSA

Flight info

Callsign JTD557
Flight time N/A
Altitude 37000
Route ALS M852 EKERN DCT BUMIL M748 HDO DCT GOLOP DCT ODNEM DCT XOMBA DCT KEROP DCT OKLOP DCT RAXAD DCT MAKED UL617 MIL J56 RUSOS
Aircraft B738/M-SDE2E3FGHIRWXY/LB1

Departure

Time 2025-10-04 08:53
Airport Billund Airport (EKBI)

Arrival

Time N/A
Airport Chania International Airport (LGSA)
Time Latitude Longitude Altitude Speed Heading
2025-10-04 08:17 55.74539 9.15078 215 ft 0 kts 357°
2025-10-04 08:42 55.74529 9.15079 215 ft 2 kts 357°
2025-10-04 08:43 55.74496 9.15082 217 ft 2 kts 357°
2025-10-04 08:43 55.74467 9.15084 218 ft 0 kts 357°
2025-10-04 08:46 55.74468 9.15080 220 ft 1 kts 325°
2025-10-04 08:47 55.74455 9.14973 220 ft 8 kts 265°
2025-10-04 08:47 55.74447 9.14705 217 ft 11 kts 267°
2025-10-04 08:48 55.74259 9.14411 220 ft 14 kts 256°
2025-10-04 08:49 55.74244 9.13978 215 ft 19 kts 267°
2025-10-04 08:49 55.74227 9.13494 215 ft 20 kts 261°
2025-10-04 08:49 55.74157 9.13303 215 ft 17 kts 215°
2025-10-04 08:50 55.74074 9.13255 218 ft 0 kts 179°
2025-10-04 08:50 55.74019 9.13261 215 ft 8 kts 174°
2025-10-04 08:51 55.73979 9.13320 215 ft 9 kts 111°
2025-10-04 08:51 55.74039 9.15368 215 ft 145 kts 86°
2025-10-04 08:52 55.74260 9.21991 1848 ft 207 kts 93°
2025-10-04 08:52 55.74340 9.24706 2302 ft 232 kts 92°
2025-10-04 08:53 55.73505 9.30503 2695 ft 260 kts 143°
2025-10-04 08:53 55.70398 9.33691 4120 ft 261 kts 161°
2025-10-04 08:54 55.67064 9.36403 5690 ft 267 kts 161°
2025-10-04 08:54 55.63644 9.39198 7153 ft 274 kts 161°
2025-10-04 08:55 55.60157 9.42083 8697 ft 279 kts 162°
2025-10-04 08:55 55.56566 9.45064 9792 ft 299 kts 162°
2025-10-04 08:56 55.50258 9.50274 10681 ft 359 kts 162°
2025-10-04 08:56 55.48003 9.52164 11461 ft 358 kts 163°
2025-10-04 08:57 55.43514 9.55930 13010 ft 358 kts 165°
2025-10-04 08:57 55.39000 9.59690 14249 ft 360 kts 165°
2025-10-04 08:58 55.34464 9.63449 15492 ft 361 kts 165°
2025-10-04 08:58 55.29901 9.67216 16588 ft 364 kts 165°
2025-10-04 08:59 55.25313 9.70993 17629 ft 368 kts 165°
2025-10-04 08:59 55.20648 9.74824 18541 ft 372 kts 165°
2025-10-04 09:00 55.15925 9.78695 19404 ft 377 kts 165°
2025-10-04 09:00 55.11170 9.82585 20545 ft 373 kts 165°
2025-10-04 09:01 55.06380 9.86485 21015 ft 387 kts 164°
2025-10-04 09:01 55.01469 9.90481 21790 ft 391 kts 164°
2025-10-04 09:02 54.96508 9.94510 22511 ft 396 kts 164°
2025-10-04 09:02 54.91419 9.98144 23080 ft 390 kts 175°
2025-10-04 09:03 54.86142 9.98066 23657 ft 377 kts 195°
2025-10-04 09:03 54.80966 9.96237 24137 ft 383 kts 195°
2025-10-04 09:04 54.75713 9.94473 24691 ft 386 kts 195°
2025-10-04 09:04 54.70436 9.92759 25168 ft 391 kts 195°
2025-10-04 09:06 54.48400 9.89333 27036 ft 430 kts 170°
2025-10-04 09:08 54.26877 10.11506 28941 ft 457 kts 158°
2025-10-04 09:10 54.05137 10.34250 30932 ft 460 kts 158°
2025-10-04 09:12 53.83211 10.56906 32676 ft 464 kts 158°
2025-10-04 09:14 53.63716 10.76821 33824 ft 473 kts 158°
2025-10-04 09:16 53.38182 11.02569 35159 ft 480 kts 157°
2025-10-04 09:18 53.15149 11.25498 36294 ft 485 kts 157°
2025-10-04 09:20 52.93166 11.52835 36520 ft 497 kts 148°
2025-10-04 09:22 52.73953 11.77348 36531 ft 499 kts 147°
2025-10-04 09:24 52.50802 12.09041 36560 ft 501 kts 142°
2025-10-04 09:26 52.32526 12.35527 36581 ft 503 kts 138°
2025-10-04 09:28 52.09762 12.70961 36630 ft 504 kts 140°
2025-10-04 09:30 51.88885 13.01472 36671 ft 506 kts 139°
2025-10-04 09:32 51.67875 13.31780 36675 ft 507 kts 139°
2025-10-04 09:34 51.49426 13.58039 36721 ft 507 kts 139°
2025-10-04 09:36 51.25608 13.91539 36731 ft 506 kts 138°
2025-10-04 09:38 51.07027 14.17330 36785 ft 506 kts 138°
2025-10-04 09:40 50.80194 14.41676 36855 ft 503 kts 169°
2025-10-04 09:42 50.56911 14.52820 36895 ft 503 kts 143°
2025-10-04 09:45 50.30012 14.95625 36904 ft 503 kts 131°
2025-10-04 09:46 50.15333 15.18964 36913 ft 500 kts 131°
2025-10-04 09:49 49.93481 15.53324 36879 ft 494 kts 132°
2025-10-04 09:50 49.76575 15.79587 36930 ft 490 kts 132°
2025-10-04 09:53 49.54822 16.12979 36966 ft 490 kts 132°
2025-10-04 09:54 49.37854 16.38719 36975 ft 489 kts 133°
2025-10-04 09:56 49.18498 16.67761 37004 ft 486 kts 133°
2025-10-04 09:58 48.99194 16.96397 37005 ft 482 kts 134°
2025-10-04 10:02 48.55326 17.41663 37018 ft 480 kts 150°
2025-10-04 10:05 48.29005 17.63241 37032 ft 479 kts 151°
2025-10-04 10:06 48.08520 17.79855 37045 ft 477 kts 151°
2025-10-04 10:08 47.85169 17.98612 37050 ft 475 kts 152°
2025-10-04 10:10 47.63034 18.19691 37041 ft 472 kts 143°
2025-10-04 10:14 47.21569 18.63800 37035 ft 466 kts 146°
2025-10-04 10:16 47.00634 18.85702 37049 ft 460 kts 146°
2025-10-04 10:18 46.79897 19.07185 37050 ft 454 kts 146°
2025-10-04 10:20 46.59293 19.28330 37059 ft 452 kts 146°
2025-10-04 10:22 46.38755 19.49206 37054 ft 449 kts 146°
2025-10-04 10:24 46.18280 19.69813 37056 ft 447 kts 148°
2025-10-04 10:26 45.99576 19.85663 37064 ft 445 kts 150°
2025-10-04 10:28 45.75589 20.05804 36711 ft 447 kts 143°
2025-10-04 10:30 45.53691 20.24055 37088 ft 470 kts 144°
2025-10-04 10:36 44.84932 20.80215 37106 ft 459 kts 147°
2025-10-04 10:38 44.62856 20.97923 37124 ft 456 kts 147°
2025-10-04 10:40 44.40734 21.15509 37111 ft 457 kts 148°
2025-10-04 10:42 44.18655 21.32882 37113 ft 455 kts 151°
2025-10-04 10:44 43.94792 21.44927 37122 ft 454 kts 158°
2025-10-04 10:46 43.71065 21.56696 37120 ft 451 kts 159°
2025-10-04 10:48 43.47463 21.68302 37131 ft 449 kts 159°
2025-10-04 10:50 43.23865 21.79810 37134 ft 451 kts 159°
2025-10-04 10:54 42.77105 22.02335 37134 ft 438 kts 160°
2025-10-04 10:56 42.53988 22.13339 37130 ft 442 kts 161°
2025-10-04 11:00 42.07469 22.29781 37106 ft 440 kts 170°
2025-10-04 11:06 41.37992 22.45925 37086 ft 443 kts 172°
2025-10-04 11:08 41.10743 22.53110 37064 ft 451 kts 157°
2025-10-04 11:10 40.91380 22.66979 37068 ft 452 kts 155°
2025-10-04 11:12 40.66467 22.84551 37063 ft 451 kts 156°